Wetbulb
67.08 64.12 60.78 55.82 49.91 50.60 50.40 53.14 57.23 55.62 56.13 58.97 60.82 60.80 62.47 64.69 63.95 62.57 73.88 76.21 77.78 78.22 78.43 77.19 77.53 78.02 77.86 77.66 77.21 76.60 76.10 76.13 76.20 76.43 76.20 76.48 76.83 77.13 77.36 77.33 77.08 76.44 75.49 76.07 76.27 75.55 74.85 74.31 74.45
64.48 58.59 56.92 53.38 45.73 45.88 49.41 54.20 54.80 57.34 58.49 59.47 59.63 59.63 60.89 60.67 66.66 70.70 72.63 75.60 78.28 78.80 78.71 76.51 77.23 77.51 77.63 77.48 77.20 76.78 76.70 76.60 76.30 76.00 76.35 76.65 76.73 77.15 77.25 77.03 77.06 76.13 74.92 74.74 74.70 74.58 74.44 74.40 74.27
61.49 58.18 52.71 48.50 46.25 44.36 48.35 54.01 55.07 58.17 58.92 58.24 58.16 60.31 61.39 64.37 69.47 71.38 75.28 76.38 78.09 78.26 78.43 77.10 76.93 77.18 77.46 77.35 77.02 76.82 76.60 76.37 76.17 76.08 76.50 76.58 76.80 76.80 76.70 76.80 76.96 75.97 75.06 74.55 74.17 74.13 74.19 74.33 74.04
57.30 55.75 53.60 46.86 45.57 47.94 49.13 52.83 53.90 56.11 58.85 59.27 59.08 56.65 62.99 74.04 72.81 74.40 76.53 76.64 77.72 77.82 77.86 76.78 76.75 76.75 76.92 77.07 76.79 76.69 76.44 76.07 76.15 76.25 76.50 76.68 76.88 76.64 76.57 76.75 76.73 76.34 75.61 75.25 74.61 74.04 73.94 73.94 73.76
56.63 54.31 48.12 46.35 47.10 49.74 50.53 51.97 53.06 53.82 55.91 58.49 58.79 56.95 58.71 71.35 74.13 76.74 76.49 76.79 76.79 77.36 77.21 76.65 76.57 76.45 76.60 76.90 76.67 76.52 76.29 75.97 76.10 76.30 76.53 76.78 76.69 76.59 76.57 76.60 76.45 76.09 75.47 74.96 74.36 73.49 73.37 73.50 72.82
51.52 51.70 45.76 44.83 47.14 50.23 51.87 52.43 51.66 53.14 55.07 56.19 54.87 57.18 58.71 73.25 74.83 76.60 77.43 77.12 77.14 76.67 76.51 76.03 76.47 76.20 76.05 76.37 76.24 75.96 75.99 75.79 75.95 76.10 76.35 76.55 76.34 76.34 76.29 76.37 75.95 75.57 74.98 74.37 73.59 72.95 73.02 72.91 72.75
52.12 49.24 45.97 47.26 47.78 49.07 50.83 53.46 51.06 51.13 53.15 54.82 56.10 53.33 59.72 70.40 75.60 77.13 77.38 77.70 77.34 77.26 76.02 74.59 75.02 76.11 75.94 75.74 75.51 75.56 75.38 75.47 75.34 75.49 75.66 75.74 75.76 75.91 75.91 75.84 75.12 74.40 73.89 73.51 73.19 72.76 72.46 72.48 73.04
53.45 51.83 47.72 48.18 47.11 47.54 51.98 52.11 52.67 51.89 51.04 56.13 56.37 51.37 54.87 64.16 75.74 77.34 77.24 77.03 77.07 77.11 76.31 75.03 73.93 74.04 73.62 75.03 75.54 75.28 75.26 75.31 75.23 75.36 75.36 75.23 75.54 75.58 75.17 74.70 75.02 74.15 73.75 73.42 72.89 72.41 72.15 72.59 72.92
54.76 48.02 45.24 46.83 48.14 48.77 52.65 49.74 52.48 53.64 52.72 54.09 54.88 53.97 58.26 71.73 75.46 76.03 75.86 75.93 76.04 75.94 76.16 75.17 73.97 73.06 73.12 72.73 74.70 75.00 75.15 75.37 75.04 75.07 75.19 74.42 73.32 74.24 74.31 74.66 74.77 74.13 73.95 73.80 73.40 73.15 72.98 72.85 73.16
48.99 45.92 46.01 49.81 51.11 50.27 51.93 51.17 51.41 50.52 50.80 51.96 52.95 55.45 56.73 68.29 72.03 73.25 74.37 74.13 74.87 74.94 75.46 75.38 74.33 73.25 73.09 72.64 73.82 72.16 72.55 72.67 72.60 73.05 73.73 72.68 74.35 74.21 72.54 73.98 74.20 73.98 73.72 73.70 73.35 73.00 72.45 72.18 71.20
47.91 44.64 48.61 49.66 52.15 52.86 51.42 51.47 52.39 50.39 50.09 52.24 51.94 54.75 56.31 63.18 68.96 70.81 73.18 74.80 75.10 75.77 75.69 75.73 75.02 74.61 73.48 73.03 73.06 72.29 71.99 71.62 71.85 72.75 73.77 74.66 74.52 74.21 72.84 73.31 72.23 72.86 72.67 72.14 71.82 72.72 72.34 72.31 72.91
43.92 47.14 47.85 49.56 51.83 50.97 49.86 52.54 52.00 51.90 51.93 54.36 55.16 56.17 56.27 60.30 68.11 69.89 71.62 74.52 75.18 75.60 75.33 76.32 76.04 75.13 75.11 73.92 73.13 73.74 72.84 72.44 72.62 73.43 75.00 74.84 73.59 73.81 72.91 72.25 72.11 72.88 71.95 72.84 72.72 73.27 75.54 74.53 74.60
44.97 45.51 46.77 48.61 49.46 49.95 51.22 50.25 50.68 51.67 54.36 55.99 55.98 55.98 56.58 57.90 64.27 72.18 73.63 74.53 75.70 75.24 75.63 76.13 76.62 75.81 74.99 75.03 73.91 73.98 74.00 73.77 73.37 73.58 74.53 73.98 72.41 72.88 73.16 72.69 71.84 71.60 72.53 73.41 73.53 75.39 76.25 76.33 76.25
46.19 45.75 46.14 47.56 47.02 48.42 47.94 48.95 50.53 51.89 54.48 54.14 54.98 55.67 56.98 57.62 58.89 67.50 73.06 73.84 74.97 75.48 75.32 75.91 75.70 76.56 75.62 75.38 74.97 74.23 74.43 74.31 74.18 74.07 74.03 73.85 73.03 73.29 71.95 72.31 71.69 71.81 73.70 75.52 75.60 76.14 76.17 76.45 75.82
47.09 43.61 45.58 46.43 47.23 46.63 47.72 44.12 46.21 51.04 53.15 53.06 54.48 55.28 56.13 57.61 58.68 61.30 71.40 73.02 74.95 75.23 75.75 74.68 74.91 76.67 76.33 75.63 75.40 75.06 74.58 74.24 74.04 74.32 75.19 74.40 74.14 74.04 72.74 70.80 70.83 71.85 75.51 76.03 75.65 76.00 77.43 76.62 75.95
43.50 43.87 39.72 45.04 46.33 46.87 46.27 40.50 46.60 49.99 50.97 51.04 52.54 54.56 55.54 57.19 58.22 60.10 62.55 73.31 74.63 74.64 75.08 74.23 75.06 76.37 76.32 75.86 75.84 75.31 75.05 74.61 74.36 74.73 75.30 74.81 74.22 73.77 73.10 70.84 70.09 73.57 74.92 74.92 76.18 77.06 75.10 74.40 72.55
43.11 37.86 39.48 41.45 46.40 46.16 45.25 41.99 46.96 49.49 50.46 50.66 51.95 53.29 54.35 55.47 57.10 60.06 63.52 71.33 74.52 74.87 74.64 73.15 76.13 75.98 76.28 76.39 76.38 76.17 76.54 74.96 74.58 74.72 74.86 75.11 74.00 72.87 72.30 71.41 72.32 75.89 75.29 76.73 75.24 74.32 73.99 71.75 69.56
38.08 38.72 39.96 39.21 43.32 44.58 43.59 43.45 46.53 49.29 50.14 50.48 51.80 53.09 54.12 55.07 56.20 58.75 67.29 72.33 74.38 74.95 75.41 75.71 75.95 76.27 76.78 75.74 74.87 75.19 75.19 75.06 74.89 74.66 74.70 75.28 73.96 73.09 72.43 73.53 74.65 75.77 74.72 74.10 74.61 73.32 71.99 69.38 67.92
42.09 40.32 39.36 42.69 45.12 42.74 42.89 44.00 46.01 48.74 49.13 49.74 51.52 53.15 54.43 55.36 57.70 59.17 70.28 73.12 73.68 74.67 74.52 75.14 75.05 75.66 74.93 73.00 72.94 73.02 72.58 73.89 74.07 74.46 74.84 74.67 73.71 73.17 72.95 73.47 74.49 74.47 73.82 72.36 70.89 70.95 69.39 66.72 66.72
42.32 40.22 40.03 43.28 45.02 43.93 43.08 42.19 44.88 47.33 48.63 50.38 51.34 52.64 54.47 55.79 57.33 59.38 71.01 72.43 73.05 74.20 74.36 74.83 74.69 75.02 73.93 73.51 73.81 73.47 73.30 73.87 73.85 73.87 74.34 74.44 74.04 74.42 73.96 73.85 71.02 70.85 69.14 68.31 67.28 67.22 67.28 66.65 66.05
41.90 39.92 39.98 40.10 43.45 44.96 42.47 40.37 43.12 46.22 47.19 49.33 51.37 53.12 54.90 55.79 56.82 61.96 69.79 71.97 73.94 74.27 74.14 74.34 73.73 73.06 73.38 75.08 74.10 73.97 74.15 74.07 72.63 73.19 72.07 73.65 73.12 72.37 71.78 70.58 70.03 66.99 65.22 64.77 65.51 64.64 65.40 65.39 66.88
37.98 43.49 42.28 39.21 36.43 34.89 42.94 33.98 42.27 45.23 45.62 46.66 48.93 51.40 53.30 55.76 57.26 63.43 70.67 72.64 73.66 74.27 74.82 74.31 73.76 74.44 74.07 74.72 73.94 74.24 71.28 69.90 69.49 67.42 68.66 69.49 69.79 69.31 68.38 66.88 66.02 68.23 66.13 63.93 63.65 64.30 65.21 64.20 61.90
39.18 43.17 41.05 40.43 37.67 36.13 38.90 36.36 40.43 44.96 43.28 45.12 47.51 50.61 53.34 55.92 57.39 61.42 70.73 72.84 73.76 74.31 73.85 74.07 74.38 74.09 73.70 73.92 74.23 72.55 69.03 67.10 66.04 65.45 66.13 67.55 68.64 69.16 68.18 68.39 68.38 66.47 62.39 63.31 61.81 61.77 61.50 61.14 59.99
43.90 40.70 40.44 39.79 37.29 30.81 37.70 37.40 38.46 41.82 43.96 45.78 48.92 49.70 53.03 55.47 57.29 60.83 70.97 73.12 73.62 74.43 74.20 73.91 73.47 73.00 73.44 73.62 73.05 69.85 67.04 65.44 64.71 65.29 66.45 65.78 65.79 65.54 66.25 66.10 65.37 63.35 63.42 62.01 61.51 61.26 60.94 60.49 61.54
40.59 37.08 30.48 29.22 28.94 29.80 39.83 36.46 39.43 44.43 45.98 47.93 48.79 50.59 52.93 55.85 56.96 60.34 69.61 71.42 72.90 73.31 73.50 73.00 72.08 71.97 72.94 72.92 71.23 70.90 69.26 68.73 68.60 68.22 65.01 62.73 63.12 65.26 66.12 63.47 64.24 63.71 62.62 61.82 61.65 61.14 60.95 60.72 60.01
38.42 38.37 32.25 25.40 28.13 32.68 38.77 33.32 39.08 46.05 47.54 49.29 50.67 52.50 53.50 56.01 57.20 61.08 69.36 71.35 72.13 72.58 72.56 70.12 71.27 71.52 71.56 72.36 71.95 71.25 71.02 70.78 69.25 66.85 65.43 64.30 63.94 62.55 61.85 63.54 62.86 60.89 60.07 60.76 61.21 60.43 60.07 60.34 59.87
36.49 33.02 39.49 31.61 33.37 31.46 36.58 39.92 43.62 46.29 46.07 47.41 50.90 51.92 53.15 56.34 57.26 64.26 69.50 71.23 71.59 71.69 70.32 70.65 70.80 71.00 71.03 72.17 71.77 71.39 72.09 69.65 67.24 67.52 66.19 62.94 61.57 61.70 61.16 60.72 59.82 60.06 60.23 60.65 61.09 60.01 59.23 60.06 59.79
38.93 40.69 33.73 34.83 25.64 25.29 33.40 35.71 37.00 42.32 43.79 46.07 48.51 52.06 54.53 56.29 58.80 66.39 69.44 70.10 70.52 69.18 70.01 71.37 71.34 70.87 70.53 71.49 71.30 68.30 65.83 65.88 65.10 65.19 63.90 64.57 63.92 62.79 60.80 59.59 58.91 59.37 58.95 59.05 58.86 58.97 58.82 58.90 59.23
36.26 34.65 37.14 37.54 33.56 28.60 28.78 34.36 44.97 43.52 45.86 45.68 49.26 52.53 55.04 55.85 62.29 67.38 66.96 67.08 66.69 67.93 69.04 70.26 71.10 69.46 70.02 68.52 64.31 63.61 65.30 65.05 64.55 63.57 64.56 63.80 62.08 61.23 59.82 59.38 58.70 58.54 58.25 57.95 59.12 58.89 57.89 58.00 58.92
41.30 37.99 37.59 31.81 31.25 35.18 32.67 30.81 48.38 45.85 47.83 48.75 50.85 53.45 55.62 57.48 65.41 63.87 62.90 63.40 64.46 65.90 66.58 66.74 67.39 67.44 64.57 63.06 63.15 64.06 65.19 64.76 63.45 62.07 62.40 62.28 60.69 60.38 59.26 58.59 57.77 56.74 57.02 58.24 58.32 57.91 58.50 58.77 58.16
MSLP
1011.95 1011.08 1010.46 1009.31 1007.51 1004.50 1001.42 1000.27 1000.14 999.96 999.98 999.97 1000.10 999.99 999.52 999.76 1000.18 1001.43 1003.27 1003.76 1004.20 1005.31 1006.54 1007.66 1008.18 1008.30 1008.44 1008.86 1009.36 1009.83 1010.36 1010.86 1011.32 1011.78 1012.18 1012.46 1012.66 1012.88 1013.14 1013.50 1013.67 1013.92 1014.20 1014.32 1014.53 1014.71 1014.82 1015.02 1015.17
1010.84 1010.81 1009.88 1007.70 1005.70 1002.25 1000.19 999.98 999.88 1000.12 999.74 1000.41 1000.44 1000.18 999.93 999.80 1000.13 1001.93 1002.94 1003.92 1004.48 1005.40 1006.65 1007.39 1008.40 1008.50 1008.51 1009.00 1009.55 1009.99 1010.50 1010.99 1011.50 1012.01 1012.38 1012.71 1012.87 1013.00 1013.32 1013.55 1013.80 1014.08 1014.33 1014.60 1014.83 1014.96 1015.10 1015.24 1015.35
1010.94 1010.38 1008.35 1006.49 1004.17 1001.30 999.64 999.14 999.85 1000.06 1000.18 1000.45 1000.16 1000.26 1000.08 1000.11 1001.21 1001.42 1002.62 1003.58 1004.21 1005.28 1006.20 1007.22 1008.37 1008.68 1008.81 1009.19 1009.72 1010.23 1010.70 1011.13 1011.65 1012.11 1012.43 1012.75 1013.00 1013.28 1013.54 1013.82 1013.99 1014.24 1014.54 1014.77 1014.97 1015.11 1015.19 1015.30 1015.41
1010.28 1009.65 1008.26 1005.70 1002.48 1001.54 1000.54 999.58 1000.18 1000.17 1000.00 1000.31 1000.36 1000.17 1000.12 1001.46 1001.57 1002.11 1003.31 1003.85 1004.36 1005.04 1005.69 1007.58 1008.38 1008.77 1008.99 1009.48 1009.94 1010.48 1010.86 1011.32 1011.80 1012.23 1012.60 1012.86 1013.22 1013.50 1013.73 1013.96 1014.16 1014.36 1014.60 1014.84 1015.02 1015.20 1015.40 1015.61 1015.77
1009.90 1007.92 1006.08 1004.14 1002.51 1001.53 1001.35 1000.84 1000.80 1000.62 999.94 999.81 1000.29 999.96 1000.29 1001.66 1002.46 1002.77 1003.53 1004.08 1004.43 1005.07 1005.81 1007.48 1008.46 1008.70 1009.14 1009.63 1010.12 1010.56 1010.93 1011.36 1011.83 1012.30 1012.68 1012.98 1013.33 1013.68 1013.96 1014.32 1014.50 1014.60 1014.76 1014.98 1015.20 1015.53 1015.75 1015.82 1015.82
1008.60 1007.24 1004.73 1002.58 1001.75 1001.32 1001.14 1001.68 1001.55 1001.12 1000.31 1000.26 1000.70 1000.16 1000.32 1002.11 1002.59 1002.91 1003.66 1004.24 1004.73 1005.35 1006.27 1007.26 1008.58 1008.92 1009.21 1009.90 1010.34 1010.64 1011.08 1011.58 1012.07 1012.50 1012.86 1013.22 1013.61 1013.90 1014.26 1014.55 1014.79 1014.85 1015.00 1015.19 1015.39 1015.60 1015.72 1015.85 1015.85
1007.86 1006.29 1003.94 1002.48 1001.17 1000.44 1000.92 1002.09 1001.72 1001.38 1000.77 1000.35 1000.61 1000.37 1000.06 1001.56 1002.60 1003.08 1003.57 1004.26 1004.96 1005.77 1006.55 1007.58 1008.25 1009.07 1009.50 1009.95 1010.42 1010.74 1011.28 1011.78 1012.27 1012.66 1013.06 1013.43 1013.81 1014.25 1014.53 1014.78 1015.04 1015.14 1015.28 1015.43 1015.46 1015.57 1015.74 1015.82 1015.89
1007.80 1006.28 1004.24 1002.50 1001.26 1000.53 1000.85 1001.50 1002.22 1001.51 1000.75 1000.64 1000.58 1000.56 1000.42 1000.78 1002.84 1003.22 1003.54 1004.10 1004.84 1005.75 1006.53 1007.53 1008.02 1008.79 1009.58 1010.05 1010.75 1011.04 1011.43 1012.06 1012.50 1012.86 1013.34 1013.72 1014.11 1014.56 1014.80 1015.02 1015.21 1015.30 1015.36 1015.49 1015.58 1015.70 1015.87 1015.98 1016.08
1008.78 1006.25 1003.56 1002.21 1001.48 1001.78 1001.27 1001.86 1001.94 1001.81 1001.33 1000.95 1000.63 1001.01 1000.82 1002.38 1003.14 1003.22 1003.44 1003.94 1004.49 1005.29 1006.14 1006.96 1007.57 1008.26 1008.80 1009.65 1010.72 1011.43 1011.88 1012.28 1012.84 1013.14 1013.69 1013.96 1013.60 1014.24 1014.68 1014.70 1015.19 1015.31 1015.42 1015.54 1015.64 1015.76 1016.01 1016.04 1015.87
1008.14 1005.97 1003.63 1003.05 1002.31 1002.07 1001.92 1001.87 1001.73 1001.98 1001.47 1000.83 1000.88 1000.83 1001.06 1002.18 1002.95 1003.14 1003.16 1003.29 1003.84 1004.66 1005.57 1006.35 1007.10 1007.84 1008.30 1009.37 1010.65 1011.05 1011.66 1012.01 1012.38 1012.81 1013.52 1013.12 1013.18 1013.57 1013.73 1014.66 1015.29 1015.39 1015.53 1015.58 1015.68 1015.79 1015.79 1015.68 1014.30
1007.95 1006.12 1004.70 1003.74 1003.98 1004.00 1003.44 1002.38 1002.43 1001.92 1000.98 1000.82 1000.61 1000.56 1001.08 1001.22 1002.36 1002.59 1002.99 1003.02 1003.48 1004.41 1005.40 1006.11 1006.99 1007.84 1008.22 1008.91 1009.96 1010.61 1011.30 1011.63 1012.17 1012.62 1013.13 1012.83 1013.25 1013.84 1013.85 1014.21 1014.65 1014.72 1015.27 1014.60 1015.06 1015.01 1014.63 1014.32 1014.46
1008.10 1007.33 1006.34 1005.68 1004.90 1005.29 1004.78 1003.76 1002.43 1002.46 1001.75 1001.06 1001.12 1001.06 1001.47 1001.62 1001.78 1002.10 1002.34 1002.78 1003.28 1004.18 1005.54 1006.17 1007.09 1007.92 1008.23 1008.60 1009.49 1009.98 1010.61 1011.21 1011.70 1012.32 1012.95 1013.01 1013.22 1013.68 1013.46 1013.46 1013.59 1014.10 1014.02 1014.00 1014.36 1013.80 1014.45 1014.57 1014.54
1008.29 1007.44 1006.96 1006.52 1006.49 1005.91 1005.66 1004.40 1003.58 1002.98 1002.94 1002.43 1002.00 1001.80 1001.95 1001.96 1001.72 1002.04 1002.23 1002.38 1003.16 1004.16 1005.70 1006.13 1007.02 1007.89 1008.33 1008.82 1009.30 1009.85 1010.46 1011.10 1011.56 1012.16 1012.66 1012.73 1012.86 1013.46 1013.53 1013.60 1013.51 1013.55 1013.62 1013.75 1013.86 1014.01 1014.08 1014.16 1014.22
1008.00 1008.15 1007.55 1007.05 1006.58 1006.25 1005.50 1004.44 1003.89 1002.72 1003.02 1002.91 1002.48 1001.96 1001.67 1001.61 1001.66 1001.60 1002.08 1002.33 1003.01 1004.02 1005.31 1006.26 1007.17 1007.87 1008.42 1008.96 1009.48 1010.05 1010.51 1010.97 1011.42 1011.80 1012.28 1012.69 1012.82 1013.34 1013.33 1013.69 1013.63 1013.64 1013.68 1013.66 1013.85 1013.85 1014.17 1014.22 1014.29
1008.83 1008.24 1007.31 1006.67 1006.41 1005.95 1005.76 1004.30 1002.21 1002.97 1002.78 1002.31 1001.62 1001.30 1001.30 1001.25 1001.36 1001.28 1001.63 1002.43 1003.09 1003.92 1005.16 1006.61 1007.37 1007.76 1008.44 1008.97 1009.66 1010.02 1010.49 1010.72 1011.09 1011.46 1012.27 1012.73 1013.04 1013.43 1013.26 1013.31 1013.52 1013.44 1013.73 1014.09 1014.04 1014.03 1014.25 1014.41 1014.65
1008.40 1007.54 1006.25 1005.02 1005.50 1005.28 1005.49 1001.90 1000.92 1002.20 1001.89 1001.40 1001.24 1001.03 1000.91 1000.65 1000.78 1001.06 1001.15 1001.91 1003.19 1003.94 1005.18 1006.70 1007.18 1007.36 1008.30 1008.84 1009.46 1009.75 1010.00 1010.46 1010.75 1011.20 1011.98 1012.63 1013.00 1013.18 1013.58 1013.30 1013.31 1013.30 1013.76 1013.63 1013.79 1014.12 1014.34 1014.75 1015.16
1006.88 1005.94 1004.97 1004.67 1005.07 1004.88 1004.50 1002.05 1001.39 1000.92 1000.34 1000.67 1000.47 1000.30 1000.16 1000.07 1000.21 1000.52 1000.63 1001.25 1002.65 1004.04 1005.11 1006.52 1006.78 1007.13 1008.03 1008.76 1009.28 1009.67 1010.17 1010.48 1010.63 1011.10 1011.64 1012.51 1012.76 1013.10 1013.19 1012.98 1013.11 1013.93 1013.56 1014.01 1014.32 1014.65 1014.89 1015.32 1015.71
1005.25 1004.90 1005.00 1004.68 1004.70 1004.56 1003.65 1002.23 1002.10 1000.90 1000.46 1000.33 1000.07 1000.00 999.70 999.41 999.35 999.76 1000.08 1000.95 1002.28 1003.64 1004.72 1005.71 1006.33 1006.93 1007.83 1008.72 1009.60 1009.76 1010.03 1010.39 1010.52 1011.09 1011.45 1012.40 1012.62 1013.07 1013.44 1013.06 1013.63 1013.99 1014.17 1014.47 1014.76 1015.28 1015.80 1015.96 1015.95
1006.49 1005.84 1005.09 1004.69 1004.74 1004.82 1003.61 1002.46 1001.79 1001.32 1000.91 1000.45 1000.05 999.86 999.55 999.09 999.06 999.22 999.81 1000.88 1002.12 1003.18 1004.16 1005.16 1005.85 1006.72 1007.74 1008.85 1009.16 1009.03 1009.35 1009.95 1010.62 1011.09 1011.74 1012.25 1012.52 1013.02 1013.48 1013.24 1014.35 1014.77 1015.08 1015.32 1015.87 1015.86 1016.34 1016.45 1016.12
1006.12 1005.73 1004.95 1004.85 1004.88 1004.81 1003.52 1002.67 1001.93 1001.53 1000.83 1000.51 999.97 999.45 999.14 998.88 998.69 998.63 999.47 1000.58 1001.79 1002.58 1003.59 1004.84 1005.66 1006.58 1007.74 1008.30 1008.36 1008.60 1009.05 1009.92 1010.36 1011.20 1011.92 1012.24 1012.76 1013.32 1013.78 1014.44 1014.99 1015.57 1016.31 1016.56 1016.50 1016.62 1016.73 1016.89 1017.62
1005.59 1005.27 1005.10 1004.86 1004.60 1004.14 1003.81 1002.36 1001.21 1000.35 1000.16 999.90 999.35 999.15 999.01 998.42 998.07 998.02 998.92 1000.10 1001.11 1001.83 1003.11 1004.55 1005.73 1006.71 1007.55 1007.70 1008.27 1008.90 1009.72 1010.50 1011.04 1011.91 1012.82 1013.22 1013.57 1014.13 1014.50 1014.95 1015.42 1016.11 1016.42 1017.80 1016.69 1016.66 1017.40 1017.98 1016.77
1005.22 1005.21 1005.48 1005.66 1005.78 1003.87 1003.15 1000.76 999.02 998.33 998.21 998.32 998.09 998.44 998.17 997.94 997.81 997.68 998.26 999.44 1000.25 1001.31 1003.02 1004.46 1005.64 1006.13 1007.16 1007.92 1007.94 1008.53 1009.25 1010.82 1012.36 1012.89 1013.61 1014.09 1014.20 1014.51 1014.93 1015.13 1015.36 1015.70 1016.19 1016.59 1017.20 1017.45 1017.94 1017.79 1017.49
1005.40 1005.97 1006.22 1006.26 1005.65 1004.83 1002.62 1000.84 996.99 997.23 996.41 996.06 996.44 996.62 996.89 996.74 997.02 997.12 997.66 998.60 999.70 1001.02 1002.41 1003.98 1004.96 1006.07 1007.19 1007.61 1007.68 1009.05 1010.64 1012.13 1012.88 1013.50 1014.10 1014.54 1014.62 1014.43 1014.54 1014.77 1015.34 1016.31 1016.60 1016.84 1016.92 1017.38 1018.03 1017.84 1017.76
1006.26 1007.02 1006.89 1006.49 1005.88 1003.74 1000.92 1000.12 996.58 995.90 995.17 994.89 994.74 995.17 995.58 995.77 996.01 996.59 997.12 998.40 999.27 1000.52 1001.81 1003.30 1004.69 1005.91 1006.88 1007.50 1008.88 1009.90 1010.76 1012.04 1012.79 1013.65 1014.10 1014.57 1015.15 1015.28 1015.32 1015.50 1015.86 1016.09 1016.56 1016.54 1017.18 1017.96 1018.22 1018.27 1018.40
1006.54 1007.50 1006.65 1006.00 1004.86 1000.59 999.31 998.70 996.74 995.29 994.56 993.95 993.70 993.57 994.28 994.83 995.33 995.95 996.47 997.66 998.72 1000.03 1001.52 1003.12 1004.69 1005.84 1006.80 1007.86 1009.13 1009.94 1010.78 1011.45 1012.04 1013.04 1014.05 1014.72 1015.10 1015.42 1016.13 1016.44 1016.21 1016.40 1016.93 1016.77 1017.33 1018.16 1018.36 1018.53 1018.24
1005.89 1006.13 1005.02 1003.60 1001.64 999.38 998.40 997.00 994.75 994.51 994.69 994.26 993.38 992.81 993.38 993.90 994.74 995.40 996.25 997.18 998.75 1000.31 1001.86 1003.61 1004.75 1005.89 1006.94 1007.83 1008.70 1009.80 1010.74 1011.24 1012.20 1013.53 1014.42 1014.98 1015.31 1016.19 1016.87 1016.72 1017.05 1017.14 1017.24 1017.45 1017.67 1018.11 1018.36 1018.52 1018.70
1005.85 1005.65 1004.97 1004.73 1002.60 1000.29 997.33 995.50 995.16 994.51 994.11 994.18 993.03 992.74 992.61 993.35 994.31 994.82 995.99 997.27 999.05 1000.73 1002.43 1003.50 1004.71 1006.05 1006.98 1007.84 1008.78 1009.82 1010.56 1011.66 1012.65 1013.56 1014.38 1015.25 1015.88 1016.44 1016.92 1017.70 1017.77 1017.50 1017.68 1017.92 1018.03 1018.40 1018.69 1018.81 1018.82
1005.85 1005.95 1005.62 1004.59 1002.27 999.79 996.82 994.71 993.16 993.06 993.56 993.52 993.76 993.00 992.30 993.48 994.03 994.73 996.00 997.91 999.66 1001.43 1002.52 1003.72 1004.78 1005.92 1007.20 1008.08 1008.98 1010.39 1011.58 1012.54 1013.43 1014.31 1014.98 1015.41 1016.00 1016.60 1017.31 1017.59 1017.78 1017.95 1018.26 1018.62 1018.68 1018.80 1019.02 1018.89 1018.72
1005.54 1005.39 1004.65 1003.15 1001.91 999.82 997.11 994.20 992.13 992.05 992.26 992.89 992.59 992.65 992.42 993.29 993.93 994.96 997.78 999.55 1000.97 1002.26 1002.77 1004.02 1005.01 1006.66 1007.70 1008.70 1010.07 1011.30 1012.08 1012.97 1013.94 1014.70 1015.14 1015.90 1016.57 1017.10 1017.46 1017.72 1018.09 1018.07 1018.59 1018.86 1018.87 1018.89 1019.00 1018.84 1018.71
1002.60 1003.18 1003.31 1002.68 1001.08 999.96 998.93 997.22 994.14 992.74 991.97 992.08 992.02 991.77 992.10 993.35 994.31 997.32 999.36 1000.89 1002.10 1002.64 1004.02 1005.05 1006.09 1007.30 1008.58 1009.74 1010.69 1011.60 1012.46 1013.41 1014.34 1014.97 1015.58 1016.31 1017.04 1017.42 1017.69 1018.07 1018.31 1018.62 1018.81 1018.95 1018.78 1018.96 1018.95 1018.55 1018.46
Wind_Speed
11 8 5 6 9 9 17 19 10 8 10 6 4 7 5 8 5 5 6 10 17 20 20 19 17 19 21 21 21 21 21 21 20 19 18 18 18 17 15 13 13 12 12 12 11 10 10 9 9
6 6 6 4 10 16 15 18 14 15 8 4 6 9 13 9 4 6 8 14 20 20 19 20 17 19 21 21 20 21 21 20 20 19 18 17 17 16 14 13 12 12 11 10 9 9 8 8 8
6 8 7 7 13 20 17 14 13 14 6 8 5 4 7 2 3 3 7 20 23 21 21 19 17 19 20 21 20 20 20 20 20 19 18 17 16 15 13 12 11 11 10 10 9 8 8 8 8
7 7 6 13 20 19 23 12 4 14 15 10 11 9 4 8 2 3 16 19 22 22 22 21 19 19 20 20 20 20 20 20 19 19 17 16 15 13 12 11 11 11 11 9 8 8 7 6 6
7 6 13 18 24 22 11 19 7 14 17 14 12 18 6 7 3 12 17 18 20 20 19 22 18 20 19 19 20 20 20 20 19 18 17 16 15 13 11 10 9 10 9 8 7 6 5 5 5
9 7 15 21 22 21 18 18 14 15 13 11 8 15 8 6 5 11 15 18 18 19 19 21 17 18 20 19 18 19 19 19 18 17 16 15 13 12 11 10 8 8 8 7 7 6 6 5 6
18 13 20 23 22 22 20 16 20 18 18 16 4 9 4 8 7 10 14 17 19 19 19 17 19 17 17 18 18 18 18 18 17 16 15 14 12 11 10 9 8 8 7 6 7 6 6 6 6
12 15 24 23 22 24 15 15 16 22 23 17 7 8 11 8 10 12 15 17 18 19 19 19 17 18 15 15 14 17 17 16 15 15 13 13 11 10 9 8 8 8 7 6 6 5 5 4 5
14 15 20 25 24 17 15 12 15 10 19 21 21 19 5 8 10 13 15 18 18 18 19 20 19 18 17 16 14 14 15 15 14 14 12 12 10 11 12 8 10 8 7 5 4 4 3 4 9
16 16 27 20 15 12 19 16 14 14 16 19 15 14 6 13 12 14 17 19 21 21 21 19 19 18 17 13 14 13 13 12 13 13 13 10 9 8 7 9 7 6 5 4 4 4 4 9 6
15 24 20 18 15 16 19 21 13 17 18 17 20 16 10 10 15 15 17 20 22 21 17 20 18 17 17 14 12 9 8 9 9 12 12 8 7 6 6 7 7 7 8 7 9 9 7 3 5
19 21 20 23 11 10 17 17 19 17 20 11 14 14 1 10 12 15 17 20 21 22 19 19 19 16 15 11 11 11 9 9 8 10 12 7 6 7 5 5 5 4 5 3 4 3 1 4 4
16 19 21 16 21 18 20 20 20 20 17 18 17 14 14 13 11 12 14 17 18 20 20 20 18 16 14 13 11 10 9 9 9 9 11 9 7 7 6 5 5 5 4 5 4 3 2 2 1
10 9 13 16 19 24 24 24 23 18 15 21 24 22 19 17 14 12 15 16 18 19 21 20 19 17 16 12 12 10 8 9 9 9 10 9 7 6 6 6 6 5 4 3 3 2 2 2 3
12 16 16 18 20 22 21 29 37 24 23 19 18 20 20 18 14 14 14 16 18 18 17 16 18 18 16 15 12 10 9 9 8 8 9 9 8 7 6 6 5 5 3 4 4 4 1 2 2
17 16 16 13 7 19 18 28 32 26 25 26 23 20 16 16 17 16 15 17 15 15 15 14 17 19 17 14 12 10 10 8 8 7 8 9 8 7 6 5 6 5 5 4 3 2 3 3 4
14 15 14 14 9 11 21 26 20 21 18 16 19 18 20 20 20 16 17 18 19 16 16 17 18 18 17 14 11 10 9 8 7 7 7 8 8 8 6 5 5 5 3 2 4 4 3 4 3
15 12 13 13 13 14 19 24 20 12 10 15 18 15 15 17 19 17 16 17 19 21 18 19 17 17 16 12 7 8 8 8 7 6 6 8 6 7 6 4 3 4 4 4 2 5 5 4 5
20 21 21 18 11 13 19 20 17 19 21 20 17 16 15 15 14 16 16 18 18 20 20 19 19 18 12 10 11 9 9 8 7 6 7 8 6 6 6 3 3 3 4 8 7 5 7 7 7
22 23 24 20 17 15 22 22 22 20 22 21 21 19 17 15 13 17 19 19 21 22 21 20 19 18 13 11 8 8 8 8 7 7 6 6 7 7 7 8 8 9 6 5 7 10 6 5 4
22 23 23 22 18 18 19 23 25 26 26 23 24 20 18 17 15 18 21 20 22 22 21 19 18 16 13 11 9 8 8 8 6 8 7 9 11 13 11 11 9 9 7 4 6 7 7 3 4
21 18 19 18 13 18 17 20 22 22 25 25 27 23 22 20 16 18 22 23 22 20 19 19 18 18 14 14 12 12 9 10 4 7 8 9 13 12 10 8 8 8 6 6 5 4 2 1 3
17 16 18 16 17 18 24 14 25 19 21 23 26 26 24 21 19 20 22 22 22 20 19 18 17 16 16 12 12 10 12 9 8 8 10 6 8 11 12 12 13 10 6 6 7 6 3 2 1
13 12 10 13 11 16 24 22 22 18 21 24 23 28 25 22 19 20 21 21 21 19 19 18 19 18 17 15 17 17 18 14 12 11 10 8 5 5 8 9 9 9 7 9 7 5 4 3 1
7 6 6 9 10 20 12 17 22 18 16 21 25 26 27 23 20 21 24 23 21 22 20 18 17 17 17 18 18 19 20 19 18 15 8 9 8 7 7 6 8 8 6 8 7 4 4 3 3
18 18 11 8 15 16 22 11 23 27 25 20 21 22 25 23 19 23 24 22 23 22 22 18 20 22 20 19 19 16 17 11 11 12 11 8 6 7 5 7 8 10 9 7 7 4 4 4 2
3 12 14 4 11 10 16 16 21 17 16 25 13 19 24 21 19 24 25 22 23 23 21 23 23 21 20 18 16 16 12 12 10 13 10 8 10 8 9 6 8 9 9 7 5 4 3 2 1
10 6 5 7 8 15 15 20 17 19 19 24 23 17 20 21 22 23 24 22 19 19 20 21 22 22 20 19 15 11 14 13 13 12 13 13 11 11 10 9 8 9 7 5 3 3 3 2 1
6 4 9 10 11 7 13 13 20 19 20 26 24 24 21 23 24 22 19 16 20 17 19 20 21 19 18 15 16 15 15 16 14 13 12 12 12 11 10 9 8 8 6 4 4 4 4 4 4
12 13 16 8 13 12 15 15 23 13 18 25 22 23 25 24 24 21 19 20 19 19 19 15 17 16 16 16 17 16 17 17 15 14 13 13 11 10 10 8 7 6 6 5 4 4 3 3 3
Wind_Direction
243 226 246 229 237 235 244 235 236 243 219 217 280 249 264 344 315 12 124 156 140 147 153 160 154 148 142 140 141 141 143 145 146 150 152 149 146 142 139 136 134 135 139 138 135 136 137 133 132
197 202 214 240 246 229 234 233 203 238 233 211 237 251 251 273 269 139 140 154 155 149 156 163 155 150 141 141 142 142 142 143 146 149 150 150 147 143 141 141 138 140 140 135 136 138 135 136 139
216 229 237 225 234 242 244 217 236 229 193 220 235 247 305 358 54 74 123 159 161 159 160 154 156 151 143 142 142 142 143 143 147 151 151 150 145 142 143 142 141 145 141 138 138 140 146 151 151
190 191 234 244 237 232 253 259 241 229 223 198 256 265 234 58 8 113 150 161 159 162 162 143 157 150 144 145 143 144 143 145 149 151 151 146 144 144 144 145 145 147 149 148 147 147 155 151 141
210 243 237 228 245 249 230 264 216 250 234 223 226 250 230 83 64 136 156 161 165 159 159 156 156 148 146 148 148 146 146 147 151 152 152 148 146 146 145 142 142 147 149 148 147 143 141 155 164
208 251 234 236 237 238 232 243 238 243 230 218 229 248 255 96 142 147 158 165 163 157 151 153 153 150 148 151 151 147 147 149 152 153 151 146 146 143 139 138 145 147 148 149 150 153 163 170 183
243 216 244 248 250 238 222 238 231 232 235 216 229 252 204 173 128 150 159 161 159 156 158 159 162 156 150 150 151 147 148 152 153 150 147 143 142 137 133 135 144 145 143 150 154 165 178 192 211
237 257 251 244 247 244 243 233 233 230 236 246 239 243 234 124 150 153 162 163 162 163 159 163 161 164 165 156 149 148 149 152 149 144 142 138 130 131 136 137 146 145 148 158 160 174 195 221 258
238 239 241 242 240 243 240 236 215 249 239 239 248 241 260 125 155 163 164 170 169 171 166 169 166 167 167 159 152 148 150 145 144 141 138 143 171 173 162 99 135 150 157 157 168 189 236 279 246
228 232 244 254 267 239 257 234 244 221 226 226 231 225 200 167 185 179 180 179 177 176 172 170 172 166 165 158 153 163 160 167 171 172 169 182 160 177 192 123 146 156 166 181 210 226 248 240 256
240 250 258 252 292 251 257 259 234 249 240 221 221 224 195 230 204 196 196 194 183 176 178 173 171 169 168 162 164 164 168 162 172 175 176 182 167 157 183 153 173 177 193 199 196 190 222 358 312
248 264 265 272 232 249 259 265 255 246 248 247 232 257 318 263 220 218 202 198 186 179 178 176 170 173 175 161 175 166 170 167 171 176 180 160 186 174 177 187 171 195 183 177 223 200 3 254 265
251 256 265 243 259 261 263 257 257 251 250 264 270 260 248 242 252 222 223 202 191 182 174 188 174 174 174 171 174 174 169 174 173 169 177 175 187 185 187 174 202 199 181 187 201 207 263 276 278
298 284 281 272 261 255 255 259 262 241 239 248 255 255 250 245 235 231 215 210 195 186 180 184 184 172 173 178 174 172 179 171 176 174 172 182 194 176 183 187 204 205 211 179 222 202 296 321 334
274 270 263 248 244 247 252 254 247 246 253 261 255 248 247 248 243 240 212 205 206 189 169 181 181 175 175 176 171 176 173 174 183 177 166 185 200 180 208 205 207 203 181 216 216 219 192 313 331
255 257 267 256 261 238 228 252 248 238 240 242 247 246 245 238 230 229 232 205 199 190 167 173 186 176 176 177 175 179 169 184 183 176 169 185 188 183 203 197 205 179 206 210 210 184 133 62 23
231 260 250 252 215 250 216 252 262 248 220 241 241 244 241 241 238 229 239 198 182 193 169 172 194 177 176 174 175 179 164 194 183 176 174 179 187 179 217 205 165 205 190 167 125 85 60 62 356
268 235 240 252 263 222 244 247 264 266 232 231 240 241 247 241 239 222 212 192 181 187 177 179 187 178 175 161 147 187 165 187 172 176 173 158 187 184 200 173 160 206 178 142 114 108 69 46 357
273 276 269 269 267 264 268 277 271 248 250 245 250 243 248 237 238 223 192 187 181 183 177 181 180 174 162 162 184 174 173 169 164 167 150 160 167 169 176 166 104 52 58 65 44 54 41 29 10
262 261 262 264 259 260 265 266 257 253 251 258 250 243 242 242 227 219 183 189 185 182 178 182 178 168 170 178 179 172 167 158 153 132 140 134 131 118 107 94 94 80 59 64 64 54 38 50 4
250 252 263 271 274 254 259 268 262 252 245 246 249 252 247 243 224 200 189 188 187 180 175 180 172 158 178 160 142 140 121 108 116 108 97 100 101 100 102 96 91 82 86 342 31 48 34 324 52
255 258 266 270 263 256 233 258 254 246 232 227 238 234 234 230 228 206 190 188 183 175 173 169 168 156 166 166 151 149 160 121 117 105 111 111 112 115 121 125 127 135 130 111 83 52 72 323 259
271 292 277 264 247 262 251 246 256 248 235 230 223 224 227 225 212 209 193 181 176 172 166 163 157 159 152 165 148 122 110 114 106 103 107 116 140 149 144 137 128 115 110 99 88 80 68 90 277
270 291 257 224 238 241 235 235 258 249 233 226 219 215 216 217 208 206 188 176 176 166 155 151 154 157 154 155 129 136 127 131 129 136 145 140 120 110 130 116 107 97 98 91 96 104 103 78 68
191 188 209 196 202 238 227 216 239 249 244 232 218 211 206 205 201 196 181 178 164 159 153 149 147 149 153 139 143 144 142 148 151 151 134 128 143 145 114 106 105 104 103 107 105 113 100 83 58
213 212 230 227 216 244 213 231 229 230 240 268 236 218 203 195 192 193 177 168 157 151 152 139 146 142 146 149 150 143 146 153 133 133 142 149 119 101 107 114 120 115 115 110 114 119 104 98 90
145 215 244 293 283 290 264 220 241 261 239 234 231 219 201 181 194 180 170 155 153 154 140 153 145 142 147 146 140 145 149 121 130 133 124 112 113 117 112 109 96 94 92 91 107 102 120 134 176
217 350 192 200 247 243 246 237 251 221 219 213 219 227 196 177 188 174 157 150 147 139 150 143 142 142 142 141 136 106 109 115 117 125 130 131 119 117 124 105 96 95 91 88 76 153 140 143 125
173 212 230 271 250 261 269 257 266 216 214 203 202 203 181 177 169 158 124 127 137 139 136 138 138 135 143 114 107 114 126 118 127 126 129 125 123 126 120 114 109 98 97 96 104 100 126 112 96
232 221 227 235 226 239 268 268 323 183 232 190 208 192 182 172 156 123 123 134 130 125 127 127 129 123 108 111 115 117 123 124 124 120 118 120 120 114 109 108 101 100 99 97 108 119 117 93 77